SCP
-0 -0 0 -0 -0 -0 -0 -0 -0 -0 -0 -0 -0 -0 -0 0 0 0 0 0 0 0 0 0 0 0 0 0 0 0 0 0 0 0 0 0 0 0 0 0 0 0 0 0 0 0 0 0 0 0 0 0 0 0
-0 -0 0 0 0 -0 -0 -0 -0 -0 -0 -0 -0 -0 0 0 0 0 0 0 0 0 0 0 0 0 0 0 0 0 0 0 0 0 0 0 0 -0 0 0 0 0 0 0 0 -0 -0 0 0 0 -0 0 -0 0
-0 -0 0 0 0 -0 -0 -0 -0 -0 -0 -0 -0 -0 0 -0 -0 0 0 0 0 0 0 0 0 0 0 0 0 0 0 0 0 0 0 0 0 0 -0 0 0 0 0 0 0 -0 -0 0 0 -0 -0 -0 -0 0
-0 -0 0 0 0 -0 -0 -0 -0 -0 -0 -0 -0 -0 0 0 0 -0 0 0 0 0 0 0 0 0 0 0 0 0 0 0 0 0 0 0 0 0 0 0 0 -0 -0 -0 -0 -0 0 0 0 0 -0 0 0 0
-0 -0 0 0 -0 -0 -0 -0 -0 -0 -0 -0 -0 -0 0 0 0 0 0 0 0 0 0 0 0 0 0 0 0 0 0 0 0 0 0 0 0 0 0 0 0 0 0 -0 -0 -0 0 0 0 0 0 0 0 0
-0 0 0 0 -0 -0 -0 -0 -0 -0 -0 -0 -0 0 0 -0 -0 0 0 0 0 0 0 0 0 0 0 0 0 0 0 0 0 0 0 0 0 0 0 0 0 0 0 0 0 0 0 0 0 -0 0 0 0 0
-0 0 0 0 -0 -0 -0 -0 -0 -0 -0 -0 -0 0 0 -0 0 0 0 0 0 0 0 0 0 0 0 0 0 0 0 0 0 0 0 0 0 0 0 0 0 0 0 0 0 0 0 0 0 0 0 0 0 0
-0 0 0 -0 -0 -0 -0 -0 -0 -0 -0 -0 -0 0 0 -0 0 0 0 0 0 0 0 0 0 0 0 0 0 0 0 0 0 0 0 0 0 0 0 0 0 0 0 0 0 0 0 0 0 0 0 0 0 0
0 0 0 -0 -0 -0 -0 -0 -0 -0 -0 -0 0 -0 0 0 0 0 0 0 0 0 0 0 0 0 0 0 0 0 0 0 0 0 0 0 -0 0 0 0 0 0 0 0 0 0 0 0 0 0 0 0 0 0
0 0 0 -0 -0 -0 -0 -0 -0 -0 -0 0 0 0 0 0 0 0 0 0 0 0 0 0 0 0 0 0 0 0 0 0 0 0 0 0 0 0 0 0 0 0 0 0 0 0 0 0 0 0 0 -0 0 0
-0 -0 -0 -0 -0 -0 0 0 0 -0 0 0 0 0 0 -0 0 0 0 0 0 0 0 0 0 0 0 0 0 0 0 0 0 0 0 0 0 0 0 0 0 0 0 0 0 0 0 0 0 0 -0 -0 -0 0
0 -0 -0 -0 -0 -0 0 0 -0 0 0 0 0 0 0 0 0 0 0 0 0 0 0 0 0 0 0 0 0 0 0 0 0 0 0 0 0 0 0 0 0 0 0 0 0 0 0 0 0 0 0 0 0 0
-0 -0 -0 -0 -0 -0 0 0 0 0 0 0 0 0 0 0 0 0 0 0 0 0 0 0 0 0 0 0 0 0 0 0 0 0 0 0 0 0 0 0 0 0 0 0 0 0 0 0 0 0 0 0 0 0
-0 -0 -0 0 -0 -0 -0 0 0 0 0 0 0 0 0 0 0 0 0 0 0 0 0 0 0 0 0 0 0 0 0 0 0 0 0 0 0 -0 0 0 0 0 0 0 -0 0 0 0 0 0 0 0 0 0
-0 -0 0 -0 -0 -0 0 0 0 0 0 0 0 0 0 0 0 0 0 0 0 0 0 0 0 0 0 0 0 0 0 0 0 0 0 0 0 0 0 0 0 0 0 0 0 0 0 0 0 0 0 0 0 0
-0 0 0 0 -0 -0 -0 0 0 0 0 0 0 0 0 0 0 0 0 0 0 0 0 0 0 0 0 0 0 0 0 0 0 0 0 0 0 0 0 -0 0 -0 0 0 0 0 0 0 0 0 0 0 0 0
0 0 0 -0 -0 -0 0 0 0 0 0 0 0 0 0 0 0 0 0 0 0 0 0 0 0 0 0 0 0 0 0 0 0 0 0 0 0 0 0 -0 0 -0 0 0 0 0 0 0 0 0 0 0 0 0
0 0 -0 -0 -0 0 0 0 0 0 0 0 0 0 0 0 0 0 0 0 0 0 0 0 0 0 0 0 0 0 0 0 0 0 0 0 0 0 0 -0 0 -0 0 0 0 0 0 0 0 0 0 0 0 0
0 0 -0 0 0 0 0 0 0 0 0 0 0 0 0 0 0 0 0 0 0 0 0 0 0 0 0 0 0 0 0 0 0 0 0 0 0 0 0 0 0 0 0 0 0 0 0 0 0 -0 -0 0 0 0
-0 0 0 0 0 0 0 0 0 0 0 0 0 0 0 0 0 0 0 0 0 0 0 0 0 0 0 0 0 0 0 0 0 0 0 0 0 0 0 0 0 0 0 0 0 0 0 0 0 -0 -0 0 0 0
0 0 0 0 0 0 0 0 0 0 0 0 0 0 0 0 0 0 0 0 0 0 0 0 0 0 0 0 0 0 0 0 0 0 0 0 0 0 0 0 0 0 0 0 -0 0 0 0 -0 -0 0 0 0 0
0 0 0 0 0 0 0 0 0 0 0 0 0 0 0 0 0 0 0 0 0 0 0 0 0 0 0 0 0 0 0 0 0 0 0 0 0 0 0 0 0 0 0 0 0 -0 -0 -0 -0 -0 0 0 0 0
0 0 0 0 0 0 0 0 0 0 0 0 0 0 0 0 0 0 0 0 0 0 0 0 0 0 0 0 0 0 0 0 0 0 0 0 0 0 0 0 0 0 0 -0 0 -0 -0 -0 0 0 0 0 0 0
0 0 0 0 0 0 0 0 0 0 0 0 0 0 0 0 0 0 0 0 0 0 0 0 0 0 0 0 0 0 0 0 0 0 0 0 0 0 0 0 0 0 0 -0 -0 0 0 -0 0 0 0 0 0 0
0 0 0 0 0 0 0 0 0 0 0 0 0 0 0 0 0 0 0 0 0 0 0 0 0 0 0 0 0 0 0 0 0 0 0 0 0 -0 0 0 0 0 -0 -0 -0 0 0 0 0 0 0 0 0 0
0 0 0 0 0 0 0 0 0 0 0 0 0 0 0 0 0 0 0 0 0 0 0 0 0 0 0 0 0 0 0 0 0 0 0 0 0 0 -0 -0 0 0 0 0 0 0 0 0 0 0 0 0 0 0
0 0 0 0 0 0 0 0 0 0 0 0 0 0 0 0 0 0 0 0 0 0 0 0 0 0 0 0 0 0 0 0 0 0 0 0 0 0 0 0 0 0 0 0 0 0 0 0 0 0 0 0 0 0
0 0 0 0 0 0 0 0 0 0 0 0 0 0 0 0 0 0 0 0 0 0 -0 -0 0 0 0 0 0 0 0 0 0 0 0 0 0 0 0 0 0 0 0 0 0 0 0 0 0 0 0 0 0 0
0 0 0 0 0 0 0 0 0 0 0 0 0 0 0 0 0 0 0 0 0 0 0 0 0 0 0 0 0 0 0 0 0 0 0 0 0 0 0 0 -0 0 0 0 0 0 0 0 0 0 0 0 0 0
0 0 0 0 0 0 0 0 0 0 0 0 0 0 0 0 0 0 0 0 0 0 0 0 0 0 0 0 0 0 0 0 0 0 0 0 0 -0 -0 0 0 0 0 -0 0 0 0 0 0 0 0 0 0 0
0 0 0 0 0 0 0 0 0 0 0 0 0 0 0 0 0 0 0 0 0 0 0 0 0 0 0 0 0 0 0 0 0 0 0 0 0 -0 -0 0 0 -0 -0 0 0 0 0 0 0 0 0 0 0 0
0 0 0 0 0 0 0 0 0 0 0 0 0 0 0 0 0 0 0 0 0 0 0 0 0 0 0 0 0 0 -0 -0 0 0 -0 -0 0 0 0 0 0 0 0 0 0 0 0 0 0 0 0 0 0 0
0 0 0 0 0 0 0 0 0 0 0 0 0 0 0 0 0 0 0 0 0 0 0 0 0 0 0 0 0 0 0 -0 0 -0 -0 -0 0 0 0 0 0 0 0 0 0 0 0 0 0 0 0 0 0 0
Wind_Speed_500mb
46 45 45 46 45 43 38 35 35 35 35 34 30 29 31 23 28 33 36 29 25 4 7 14 18 22 22 17 3 26 11 18 12 12 7 6 7 6 5 5 9 4 4 2 5 5 4 11 8 6 8 16 16 20
46 47 48 49 48 44 40 36 32 32 32 31 29 24 24 27 21 27 32 30 28 3 5 5 10 13 15 17 18 10 4 10 9 6 6 3 5 6 3 5 11 7 4 7 7 8 9 11 16 23 22 17 12 17
47 47 50 51 49 46 42 38 32 30 30 29 28 26 22 19 22 25 22 27 41 8 5 5 12 6 10 15 17 9 8 7 7 5 7 3 4 4 5 6 6 12 2 7 7 6 2 16 14 17 14 14 15 28
47 49 52 53 49 46 43 41 37 30 29 29 28 26 24 20 18 20 20 16 29 11 3 7 9 13 15 13 14 19 24 21 17 6 3 4 1 5 3 6 3 6 6 7 4 2 13 20 22 24 24 19 14 13
48 50 53 54 50 47 46 43 39 33 29 29 28 27 24 21 19 16 9 7 25 15 5 15 26 7 15 16 14 18 29 27 19 7 4 4 3 5 6 4 6 4 7 6 9 18 8 17 10 11 17 15 13 13
48 50 52 54 52 49 47 43 39 36 31 29 28 27 27 21 15 10 3 8 26 20 5 5 10 15 22 25 25 25 22 23 14 7 6 6 6 6 5 2 8 22 27 18 12 25 22 16 15 14 14 12 18 14
50 49 52 54 54 51 48 44 42 39 33 30 28 26 24 17 10 8 3 17 21 20 4 8 10 9 10 19 20 30 17 5 5 3 5 4 5 10 6 5 10 29 22 23 25 27 19 20 12 14 13 14 14 13
51 51 52 53 55 51 48 46 43 41 34 29 27 21 16 13 15 9 15 22 18 12 7 2 8 5 6 10 10 10 11 5 2 4 6 4 7 4 1 14 13 27 21 22 18 14 15 14 12 23 17 17 19 17
52 53 52 53 54 50 47 49 44 43 36 28 23 25 18 7 7 20 34 26 22 11 5 3 4 6 13 19 14 12 7 7 2 4 5 2 4 3 12 21 34 31 25 18 19 14 15 8 13 21 22 17 12 4
53 54 54 54 53 48 45 50 47 43 39 32 18 8 4 4 27 28 7 5 6 7 8 6 4 4 19 19 12 9 3 6 1 8 2 5 6 14 12 10 36 32 29 28 30 16 9 9 6 8 3 13 5 2
54 54 55 55 52 44 42 50 51 46 39 32 19 7 25 24 11 4 6 7 7 4 7 3 14 5 23 5 7 6 3 3 2 6 5 3 6 10 10 18 20 20 19 16 12 10 10 8 4 5 8 8 5 4
53 54 55 55 47 38 47 49 50 44 37 38 34 35 16 6 5 2 6 7 2 5 2 8 13 14 13 7 2 8 3 3 5 9 5 5 7 9 14 14 12 25 20 13 14 14 13 14 11 11 6 8 11 15
50 51 54 52 36 48 50 48 41 40 38 28 7 6 5 4 6 4 4 7 5 5 7 19 21 27 8 7 2 3 3 7 6 4 5 8 13 12 9 16 18 18 17 15 15 15 18 18 17 22 17 13 10 9
46 50 54 42 49 55 53 46 40 33 19 8 5 8 7 7 8 9 10 10 12 8 16 22 30 8 9 6 5 5 6 3 6 6 6 10 19 27 22 21 20 21 23 25 20 16 18 4 9 10 24 22 14 15
48 51 47 54 62 59 52 47 37 25 8 8 9 7 11 19 20 33 29 12 12 4 6 17 12 3 6 6 3 5 5 1 7 7 6 14 23 39 33 28 29 26 21 24 24 21 15 7 8 15 15 11 13 17
52 53 57 65 68 58 48 42 29 9 7 9 14 9 21 15 21 32 17 4 14 3 8 2 2 5 3 5 2 5 3 8 8 10 25 30 35 34 46 36 29 38 28 29 27 24 22 14 11 8 17 20 18 13
51 52 59 64 60 52 45 33 7 9 10 10 16 26 37 34 32 37 22 14 19 10 3 4 1 7 3 3 4 7 9 8 25 36 31 33 31 32 25 37 28 24 34 31 26 18 29 24 14 17 22 13 13 15
52 53 55 51 60 66 41 6 7 10 13 22 22 41 35 36 33 25 23 19 17 11 9 6 1 4 7 8 7 11 29 31 34 33 32 29 27 25 20 27 39 24 29 24 27 24 24 25 20 21 18 15 14 18
54 53 52 43 54 54 13 7 10 11 18 24 34 38 38 38 31 27 33 21 23 22 17 9 5 6 8 17 22 30 34 32 27 31 25 23 26 17 24 29 40 30 19 32 34 26 26 26 25 29 24 19 11 13
49 45 44 42 45 20 12 14 13 14 12 15 32 37 32 34 34 33 37 26 30 16 10 9 17 30 36 40 36 41 30 26 29 35 27 19 20 15 16 20 23 33 35 24 29 23 21 21 21 24 17 16 14 12
51 45 44 45 48 18 15 12 11 17 21 16 21 28 29 28 44 45 43 27 29 15 16 28 33 25 30 29 25 24 21 19 22 28 31 31 25 26 24 30 31 32 30 28 22 34 28 26 20 9 11 25 22 18
39 37 46 42 10 9 14 16 14 18 23 31 43 24 14 11 14 27 34 21 17 37 29 28 19 31 16 21 17 23 24 18 13 14 27 39 39 30 32 32 36 27 31 33 32 32 26 21 18 21 21 27 21 21
35 48 29 10 9 11 15 16 11 10 8 8 11 9 10 17 26 28 11 18 27 25 13 17 19 11 18 22 30 22 21 28 33 25 26 37 28 25 29 30 25 22 32 38 25 27 31 29 26 32 29 30 22 26
42 12 9 9 14 12 11 9 12 10 10 13 7 10 10 24 42 11 2 16 24 18 16 13 5 8 20 28 34 29 14 16 14 14 26 29 31 21 17 17 18 20 24 21 25 32 27 33 36 34 32 25 29 38
12 12 11 14 13 9 10 9 9 9 10 14 7 6 29 17 3 5 6 14 28 27 26 23 22 21 22 37 42 32 15 18 22 35 47 34 25 34 30 24 25 26 26 29 34 28 32 38 35 32 38 38 28 23
11 12 15 11 10 12 10 6 5 5 6 5 6 16 23 14 3 7 5 22 22 28 35 29 33 32 31 29 28 29 26 21 35 34 35 40 39 36 37 41 36 27 17 21 18 9 24 39 42 31 31 29 33 35
10 15 19 22 18 21 13 20 36 19 9 7 4 9 7 7 7 4 19 24 30 23 25 9 20 20 25 26 23 22 23 31 33 37 35 34 35 25 8 12 15 8 9 17 31 37 34 36 21 8 17 16 17 24
20 15 15 16 20 32 24 18 7 6 6 9 11 4 2 6 5 12 17 27 25 22 32 36 28 25 27 28 32 31 22 25 28 25 20 16 17 30 41 23 27 27 28 30 27 30 38 36 32 31 21 23 26 17
18 24 24 28 36 28 22 20 22 10 9 11 4 2 3 6 22 19 15 17 20 30 36 30 32 33 29 23 19 14 17 25 25 37 33 23 27 9 14 26 39 36 21 33 25 13 11 7 11 23 29 23 19 11
18 27 14 12 10 9 28 15 13 14 8 4 3 9 27 11 9 12 19 30 28 19 24 27 32 39 40 34 31 34 36 34 30 19 18 18 21 18 20 17 16 11 17 13 5 16 15 21 25 29 25 21 16 17
16 15 21 29 16 33 21 11 10 16 20 21 32 26 7 17 9 17 20 17 17 19 24 28 32 35 36 39 39 41 43 42 34 17 4 5 3 13 23 25 11 8 1 14 21 20 23 27 27 26 25 29 32 26
15 11 11 7 22 16 13 13 19 28 28 22 20 10 18 11 6 9 22 22 22 23 24 23 20 23 23 22 28 32 37 36 31 25 18 10 10 11 12 12 8 1 4 18 25 29 25 25 27 26 29 31 31 31
24 25 27 6 3 5 7 13 8 9 10 5 10 30 16 9 5 2 9 17 12 12 15 20 24 21 18 20 25 29 35 39 38 31 27 28 28 24 22 21 19 15 12 10 20 24 31 37 40 38 39 39 33 27
Wind_Direction_500mb
9 7 5 1 359 358 354 351 354 359 5 8 12 17 22 33 35 32 42 29 23 88 61 26 10 12 6 6 74 315 360 358 10 29 32 335 16 342 18 1 326 52 72 16 43 61 334 314 299 218 163 151 123 124
6 4 2 359 357 354 353 351 348 351 359 1 2 2 7 19 19 23 29 33 11 61 20 4 340 8 353 9 11 14 28 351 8 55 23 19 354 6 354 347 330 26 148 157 128 209 248 337 78 124 149 161 168 172
2 1 359 358 355 353 352 351 345 343 351 351 348 349 347 356 0 7 9 6 22 342 320 298 323 303 336 349 1 20 302 308 331 17 150 178 25 106 3 311 358 354 118 97 75 318 343 63 125 137 149 145 151 187
358 358 358 357 356 354 352 349 344 340 344 343 343 340 335 336 334 338 351 351 0 353 282 287 249 306 255 332 305 310 303 284 271 294 149 138 171 166 245 226 121 255 11 131 45 307 79 113 112 114 127 120 138 133
355 355 356 356 355 352 350 346 341 339 337 334 337 336 331 329 328 328 285 333 352 4 268 287 305 298 237 264 288 285 282 292 262 210 170 212 174 75 350 63 332 334 176 125 215 206 182 140 135 156 134 138 153 153
353 352 354 354 352 350 349 347 343 340 333 327 329 331 332 327 338 353 199 258 335 349 270 314 287 293 252 260 262 288 281 284 301 223 161 138 146 110 93 228 278 96 113 111 117 133 134 144 165 163 200 182 169 179
351 350 350 351 350 349 347 346 342 341 332 323 320 324 330 323 318 323 259 333 339 338 239 290 289 248 313 316 287 258 286 236 315 8 72 245 175 155 112 162 187 128 125 125 131 135 164 189 222 206 195 198 199 215
349 348 348 348 349 347 346 344 342 341 333 322 318 315 311 311 316 297 311 322 320 332 252 218 278 342 351 331 332 309 255 204 71 332 342 196 140 91 349 225 191 158 160 165 167 170 148 148 147 182 203 220 231 244
347 346 346 346 347 346 346 346 344 344 336 321 310 319 305 266 305 318 310 301 286 274 279 252 148 258 345 355 317 307 238 56 13 13 269 27 346 241 224 210 186 174 182 181 155 145 157 215 258 253 260 244 291 264
345 345 345 345 345 344 345 345 345 344 343 341 317 325 301 305 294 308 291 244 232 209 231 250 9 293 337 337 313 308 61 148 185 250 249 82 253 254 225 253 201 174 174 159 168 172 210 258 260 239 335 195 287 161
342 342 343 343 342 343 344 343 343 345 347 360 346 290 294 311 300 260 263 210 207 224 220 234 346 300 334 322 238 286 233 156 58 268 128 279 286 228 173 175 179 185 189 200 231 247 258 252 254 292 248 210 204 200
340 342 340 341 342 347 344 342 338 342 342 327 306 299 312 319 273 310 276 308 77 228 242 318 325 318 322 283 11 322 272 54 240 139 76 277 256 181 208 214 215 197 196 221 255 249 248 253 247 233 242 263 292 265
340 341 339 340 341 340 341 341 335 331 329 328 309 289 267 270 17 228 278 311 333 326 357 330 321 321 258 260 141 31 287 240 127 65 220 236 303 215 234 201 204 224 236 233 242 262 268 258 260 240 223 217 228 234
337 339 340 340 335 337 338 335 331 329 330 307 270 297 170 265 242 206 203 214 250 214 323 325 306 288 316 77 13 54 297 53 45 19 272 309 338 333 261 234 232 234 233 238 253 247 247 232 221 202 215 220 255 315
335 337 340 339 333 334 331 329 324 313 284 266 269 254 228 242 287 310 306 247 226 207 329 297 301 289 36 80 57 63 332 121 181 215 230 268 279 296 298 275 265 239 232 230 240 252 234 207 176 172 198 244 288 281
336 341 344 336 331 332 324 324 317 281 243 242 237 265 277 289 299 305 307 329 153 159 289 199 9 359 297 140 148 197 122 228 248 230 262 294 271 296 300 282 290 241 235 248 246 224 234 218 246 287 295 317 257 279
337 341 340 336 339 340 331 319 275 227 237 237 240 248 261 279 283 296 280 206 188 195 168 121 180 248 139 119 209 177 205 219 272 295 279 296 271 323 298 268 289 273 222 215 223 230 217 219 242 271 270 322 287 262
329 337 341 336 340 340 339 292 249 252 253 246 256 273 282 282 295 286 302 211 199 183 165 186 87 297 189 219 246 231 237 273 318 314 303 299 273 275 240 284 230 281 213 236 237 222 223 244 253 274 279 284 265 263
324 331 334 328 335 339 302 270 236 263 255 270 273 275 290 293 282 285 297 259 207 188 165 135 142 237 236 224 241 276 285 278 294 296 301 302 283 264 277 227 215 252 277 224 222 230 239 245 267 263 264 255 268 202
317 324 322 321 328 324 282 263 234 254 265 271 291 290 294 296 294 294 301 244 203 173 158 175 200 236 251 276 280 279 293 293 273 270 279 298 299 272 245 237 248 261 249 232 219 223 238 280 274 219 234 238 227 204
321 324 319 324 318 277 262 299 269 274 283 266 280 313 306 289 290 289 288 245 197 200 206 226 248 270 280 279 281 287 281 261 269 270 287 301 302 277 276 255 262 264 217 213 233 252 255 225 198 243 226 220 206 229
320 324 323 327 261 262 259 247 250 280 298 289 295 291 270 266 275 290 279 217 232 246 238 278 277 292 286 291 289 262 257 278 299 312 302 303 297 274 266 270 248 243 226 224 253 239 220 225 248 215 211 206 227 226
325 322 311 258 261 249 261 261 252 231 246 269 289 296 289 291 290 298 229 238 261 282 237 248 228 235 281 284 314 292 289 287 280 281 300 286 293 291 291 294 291 263 211 220 232 235 236 250 233 210 229 228 238 232
320 274 256 253 232 260 266 255 242 248 249 252 266 283 273 282 298 250 210 42 24 37 49 64 65 307 290 312 324 314 309 307 293 289 296 287 278 283 309 295 286 255 244 255 248 245 237 217 211 228 224 245 251 249
283 240 234 252 247 254 250 233 238 237 258 270 276 298 297 308 211 202 99 14 22 31 23 352 348 353 343 318 320 325 313 336 318 303 297 290 289 278 266 255 268 267 268 268 266 259 229 227 231 243 247 254 248 236
253 232 213 233 237 205 230 258 285 336 311 287 278 294 305 319 278 72 65 1 358 358 359 338 334 328 314 319 305 305 304 295 317 306 291 265 268 301 284 259 255 265 245 249 249 291 278 261 248 253 231 242 237 238
247 257 240 237 262 287 290 288 299 319 282 249 226 293 355 8 45 62 355 11 343 325 328 359 37 40 27 3 350 333 296 287 287 295 293 282 272 261 273 336 330 319 284 266 255 253 255 271 268 287 249 230 239 235
243 262 227 258 256 266 279 291 241 256 277 294 331 76 48 7 359 354 337 330 331 323 342 356 3 3 2 351 347 348 344 343 348 341 313 289 248 258 247 258 278 304 301 288 285 283 267 267 268 262 255 218 180 165
243 237 263 266 272 276 274 270 272 265 179 256 74 111 216 252 297 290 313 350 1 0 338 338 343 346 347 352 6 20 4 357 20 25 37 31 2 315 280 252 289 305 275 309 301 290 252 198 140 182 203 194 180 205
251 257 229 260 274 270 296 294 224 247 198 274 308 227 279 281 97 80 25 356 320 347 353 351 360 11 18 11 359 350 350 350 338 329 345 334 357 338 333 328 325 337 304 281 226 185 210 225 208 177 168 150 129 105
254 267 278 286 287 302 286 287 296 285 273 259 282 274 206 170 126 44 36 10 347 6 18 18 16 16 10 3 1 3 8 9 4 349 157 125 36 5 17 8 339 21 178 188 200 190 184 158 147 131 104 89 84 89
225 240 252 259 284 296 280 305 307 295 294 273 244 161 149 135 94 26 4 4 21 34 24 19 20 14 20 19 12 8 1 2 19 31 44 108 98 72 63 66 84 85 162 139 138 132 113 94 81 76 86 91 97 100
244 267 265 277 315 337 330 331 304 291 267 243 92 124 115 114 118 107 16 4 34 43 24 17 10 25 26 16 23 37 43 46 47 50 54 56 64 70 69 67 73 73 79 94 92 86 82 87 90 94 95 97 101 109
Wind_Speed_850mb
46 45 45 46 45 43 38 35 35 35 35 34 30 29 31 23 28 33 36 29 25 4 7 14 18 22 22 17 3 26 11 18 12 12 7 6 7 6 5 5 9 4 4 2 5 5 4 11 8 6 8 16 16 20
46 47 48 49 48 44 40 36 32 32 32 31 29 24 24 27 21 27 32 30 28 3 5 5 10 13 15 17 18 10 4 10 9 6 6 3 5 6 3 5 11 7 4 7 7 8 9 11 16 23 22 17 12 17
47 47 50 51 49 46 42 38 32 30 30 29 28 26 22 19 22 25 22 27 41 8 5 5 12 6 10 15 17 9 8 7 7 5 7 3 4 4 5 6 6 12 2 7 7 6 2 16 14 17 14 14 15 28
47 49 52 53 49 46 43 41 37 30 29 29 28 26 24 20 18 20 20 16 29 11 3 7 9 13 15 13 14 19 24 21 17 6 3 4 1 5 3 6 3 6 6 7 4 2 13 20 22 24 24 19 14 13
48 50 53 54 50 47 46 43 39 33 29 29 28 27 24 21 19 16 9 7 25 15 5 15 26 7 15 16 14 18 29 27 19 7 4 4 3 5 6 4 6 4 7 6 9 18 8 17 10 11 17 15 13 13
48 50 52 54 52 49 47 43 39 36 31 29 28 27 27 21 15 10 3 8 26 20 5 5 10 15 22 25 25 25 22 23 14 7 6 6 6 6 5 2 8 22 27 18 12 25 22 16 15 14 14 12 18 14
50 49 52 54 54 51 48 44 42 39 33 30 28 26 24 17 10 8 3 17 21 20 4 8 10 9 10 19 20 30 17 5 5 3 5 4 5 10 6 5 10 29 22 23 25 27 19 20 12 14 13 14 14 13
51 51 52 53 55 51 48 46 43 41 34 29 27 21 16 13 15 9 15 22 18 12 7 2 8 5 6 10 10 10 11 5 2 4 6 4 7 4 1 14 13 27 21 22 18 14 15 14 12 23 17 17 19 17
52 53 52 53 54 50 47 49 44 43 36 28 23 25 18 7 7 20 34 26 22 11 5 3 4 6 13 19 14 12 7 7 2 4 5 2 4 3 12 21 34 31 25 18 19 14 15 8 13 21 22 17 12 4
53 54 54 54 53 48 45 50 47 43 39 32 18 8 4 4 27 28 7 5 6 7 8 6 4 4 19 19 12 9 3 6 1 8 2 5 6 14 12 10 36 32 29 28 30 16 9 9 6 8 3 13 5 2
54 54 55 55 52 44 42 50 51 46 39 32 19 7 25 24 11 4 6 7 7 4 7 3 14 5 23 5 7 6 3 3 2 6 5 3 6 10 10 18 20 20 19 16 12 10 10 8 4 5 8 8 5 4
53 54 55 55 47 38 47 49 50 44 37 38 34 35 16 6 5 2 6 7 2 5 2 8 13 14 13 7 2 8 3 3 5 9 5 5 7 9 14 14 12 25 20 13 14 14 13 14 11 11 6 8 11 15
50 51 54 52 36 48 50 48 41 40 38 28 7 6 5 4 6 4 4 7 5 5 7 19 21 27 8 7 2 3 3 7 6 4 5 8 13 12 9 16 18 18 17 15 15 15 18 18 17 22 17 13 10 9
46 50 54 42 49 55 53 46 40 33 19 8 5 8 7 7 8 9 10 10 12 8 16 22 30 8 9 6 5 5 6 3 6 6 6 10 19 27 22 21 20 21 23 25 20 16 18 4 9 10 24 22 14 15
48 51 47 54 62 59 52 47 37 25 8 8 9 7 11 19 20 33 29 12 12 4 6 17 12 3 6 6 3 5 5 1 7 7 6 14 23 39 33 28 29 26 21 24 24 21 15 7 8 15 15 11 13 17
52 53 57 65 68 58 48 42 29 9 7 9 14 9 21 15 21 32 17 4 14 3 8 2 2 5 3 5 2 5 3 8 8 10 25 30 35 34 46 36 29 38 28 29 27 24 22 14 11 8 17 20 18 13
51 52 59 64 60 52 45 33 7 9 10 10 16 26 37 34 32 37 22 14 19 10 3 4 1 7 3 3 4 7 9 8 25 36 31 33 31 32 25 37 28 24 34 31 26 18 29 24 14 17 22 13 13 15
52 53 55 51 60 66 41 6 7 10 13 22 22 41 35 36 33 25 23 19 17 11 9 6 1 4 7 8 7 11 29 31 34 33 32 29 27 25 20 27 39 24 29 24 27 24 24 25 20 21 18 15 14 18
54 53 52 43 54 54 13 7 10 11 18 24 34 38 38 38 31 27 33 21 23 22 17 9 5 6 8 17 22 30 34 32 27 31 25 23 26 17 24 29 40 30 19 32 34 26 26 26 25 29 24 19 11 13
49 45 44 42 45 20 12 14 13 14 12 15 32 37 32 34 34 33 37 26 30 16 10 9 17 30 36 40 36 41 30 26 29 35 27 19 20 15 16 20 23 33 35 24 29 23 21 21 21 24 17 16 14 12
51 45 44 45 48 18 15 12 11 17 21 16 21 28 29 28 44 45 43 27 29 15 16 28 33 25 30 29 25 24 21 19 22 28 31 31 25 26 24 30 31 32 30 28 22 34 28 26 20 9 11 25 22 18
39 37 46 42 10 9 14 16 14 18 23 31 43 24 14 11 14 27 34 21 17 37 29 28 19 31 16 21 17 23 24 18 13 14 27 39 39 30 32 32 36 27 31 33 32 32 26 21 18 21 21 27 21 21
35 48 29 10 9 11 15 16 11 10 8 8 11 9 10 17 26 28 11 18 27 25 13 17 19 11 18 22 30 22 21 28 33 25 26 37 28 25 29 30 25 22 32 38 25 27 31 29 26 32 29 30 22 26
42 12 9 9 14 12 11 9 12 10 10 13 7 10 10 24 42 11 2 16 24 18 16 13 5 8 20 28 34 29 14 16 14 14 26 29 31 21 17 17 18 20 24 21 25 32 27 33 36 34 32 25 29 38
12 12 11 14 13 9 10 9 9 9 10 14 7 6 29 17 3 5 6 14 28 27 26 23 22 21 22 37 42 32 15 18 22 35 47 34 25 34 30 24 25 26 26 29 34 28 32 38 35 32 38 38 28 23
11 12 15 11 10 12 10 6 5 5 6 5 6 16 23 14 3 7 5 22 22 28 35 29 33 32 31 29 28 29 26 21 35 34 35 40 39 36 37 41 36 27 17 21 18 9 24 39 42 31 31 29 33 35
10 15 19 22 18 21 13 20 36 19 9 7 4 9 7 7 7 4 19 24 30 23 25 9 20 20 25 26 23 22 23 31 33 37 35 34 35 25 8 12 15 8 9 17 31 37 34 36 21 8 17 16 17 24
20 15 15 16 20 32 24 18 7 6 6 9 11 4 2 6 5 12 17 27 25 22 32 36 28 25 27 28 32 31 22 25 28 25 20 16 17 30 41 23 27 27 28 30 27 30 38 36 32 31 21 23 26 17
18 24 24 28 36 28 22 20 22 10 9 11 4 2 3 6 22 19 15 17 20 30 36 30 32 33 29 23 19 14 17 25 25 37 33 23 27 9 14 26 39 36 21 33 25 13 11 7 11 23 29 23 19 11
18 27 14 12 10 9 28 15 13 14 8 4 3 9 27 11 9 12 19 30 28 19 24 27 32 39 40 34 31 34 36 34 30 19 18 18 21 18 20 17 16 11 17 13 5 16 15 21 25 29 25 21 16 17
16 15 21 29 16 33 21 11 10 16 20 21 32 26 7 17 9 17 20 17 17 19 24 28 32 35 36 39 39 41 43 42 34 17 4 5 3 13 23 25 11 8 1 14 21 20 23 27 27 26 25 29 32 26
15 11 11 7 22 16 13 13 19 28 28 22 20 10 18 11 6 9 22 22 22 23 24 23 20 23 23 22 28 32 37 36 31 25 18 10 10 11 12 12 8 1 4 18 25 29 25 25 27 26 29 31 31 31
24 25 27 6 3 5 7 13 8 9 10 5 10 30 16 9 5 2 9 17 12 12 15 20 24 21 18 20 25 29 35 39 38 31 27 28 28 24 22 21 19 15 12 10 20 24 31 37 40 38 39 39 33 27
Wind_Direction_850mb
9 7 5 1 359 358 354 351 354 359 5 8 12 17 22 33 35 32 42 29 23 88 61 26 10 12 6 6 74 315 360 358 10 29 32 335 16 342 18 1 326 52 72 16 43 61 334 314 299 218 163 151 123 124
6 4 2 359 357 354 353 351 348 351 359 1 2 2 7 19 19 23 29 33 11 61 20 4 340 8 353 9 11 14 28 351 8 55 23 19 354 6 354 347 330 26 148 157 128 209 248 337 78 124 149 161 168 172
2 1 359 358 355 353 352 351 345 343 351 351 348 349 347 356 0 7 9 6 22 342 320 298 323 303 336 349 1 20 302 308 331 17 150 178 25 106 3 311 358 354 118 97 75 318 343 63 125 137 149 145 151 187
358 358 358 357 356 354 352 349 344 340 344 343 343 340 335 336 334 338 351 351 0 353 282 287 249 306 255 332 305 310 303 284 271 294 149 138 171 166 245 226 121 255 11 131 45 307 79 113 112 114 127 120 138 133
355 355 356 356 355 352 350 346 341 339 337 334 337 336 331 329 328 328 285 333 352 4 268 287 305 298 237 264 288 285 282 292 262 210 170 212 174 75 350 63 332 334 176 125 215 206 182 140 135 156 134 138 153 153
353 352 354 354 352 350 349 347 343 340 333 327 329 331 332 327 338 353 199 258 335 349 270 314 287 293 252 260 262 288 281 284 301 223 161 138 146 110 93 228 278 96 113 111 117 133 134 144 165 163 200 182 169 179
351 350 350 351 350 349 347 346 342 341 332 323 320 324 330 323 318 323 259 333 339 338 239 290 289 248 313 316 287 258 286 236 315 8 72 245 175 155 112 162 187 128 125 125 131 135 164 189 222 206 195 198 199 215
349 348 348 348 349 347 346 344 342 341 333 322 318 315 311 311 316 297 311 322 320 332 252 218 278 342 351 331 332 309 255 204 71 332 342 196 140 91 349 225 191 158 160 165 167 170 148 148 147 182 203 220 231 244
347 346 346 346 347 346 346 346 344 344 336 321 310 319 305 266 305 318 310 301 286 274 279 252 148 258 345 355 317 307 238 56 13 13 269 27 346 241 224 210 186 174 182 181 155 145 157 215 258 253 260 244 291 264
345 345 345 345 345 344 345 345 345 344 343 341 317 325 301 305 294 308 291 244 232 209 231 250 9 293 337 337 313 308 61 148 185 250 249 82 253 254 225 253 201 174 174 159 168 172 210 258 260 239 335 195 287 161
342 342 343 343 342 343 344 343 343 345 347 360 346 290 294 311 300 260 263 210 207 224 220 234 346 300 334 322 238 286 233 156 58 268 128 279 286 228 173 175 179 185 189 200 231 247 258 252 254 292 248 210 204 200
340 342 340 341 342 347 344 342 338 342 342 327 306 299 312 319 273 310 276 308 77 228 242 318 325 318 322 283 11 322 272 54 240 139 76 277 256 181 208 214 215 197 196 221 255 249 248 253 247 233 242 263 292 265
340 341 339 340 341 340 341 341 335 331 329 328 309 289 267 270 17 228 278 311 333 326 357 330 321 321 258 260 141 31 287 240 127 65 220 236 303 215 234 201 204 224 236 233 242 262 268 258 260 240 223 217 228 234
337 339 340 340 335 337 338 335 331 329 330 307 270 297 170 265 242 206 203 214 250 214 323 325 306 288 316 77 13 54 297 53 45 19 272 309 338 333 261 234 232 234 233 238 253 247 247 232 221 202 215 220 255 315
335 337 340 339 333 334 331 329 324 313 284 266 269 254 228 242 287 310 306 247 226 207 329 297 301 289 36 80 57 63 332 121 181 215 230 268 279 296 298 275 265 239 232 230 240 252 234 207 176 172 198 244 288 281
336 341 344 336 331 332 324 324 317 281 243 242 237 265 277 289 299 305 307 329 153 159 289 199 9 359 297 140 148 197 122 228 248 230 262 294 271 296 300 282 290 241 235 248 246 224 234 218 246 287 295 317 257 279
337 341 340 336 339 340 331 319 275 227 237 237 240 248 261 279 283 296 280 206 188 195 168 121 180 248 139 119 209 177 205 219 272 295 279 296 271 323 298 268 289 273 222 215 223 230 217 219 242 271 270 322 287 262
329 337 341 336 340 340 339 292 249 252 253 246 256 273 282 282 295 286 302 211 199 183 165 186 87 297 189 219 246 231 237 273 318 314 303 299 273 275 240 284 230 281 213 236 237 222 223 244 253 274 279 284 265 263
324 331 334 328 335 339 302 270 236 263 255 270 273 275 290 293 282 285 297 259 207 188 165 135 142 237 236 224 241 276 285 278 294 296 301 302 283 264 277 227 215 252 277 224 222 230 239 245 267 263 264 255 268 202
317 324 322 321 328 324 282 263 234 254 265 271 291 290 294 296 294 294 301 244 203 173 158 175 200 236 251 276 280 279 293 293 273 270 279 298 299 272 245 237 248 261 249 232 219 223 238 280 274 219 234 238 227 204
321 324 319 324 318 277 262 299 269 274 283 266 280 313 306 289 290 289 288 245 197 200 206 226 248 270 280 279 281 287 281 261 269 270 287 301 302 277 276 255 262 264 217 213 233 252 255 225 198 243 226 220 206 229
320 324 323 327 261 262 259 247 250 280 298 289 295 291 270 266 275 290 279 217 232 246 238 278 277 292 286 291 289 262 257 278 299 312 302 303 297 274 266 270 248 243 226 224 253 239 220 225 248 215 211 206 227 226
325 322 311 258 261 249 261 261 252 231 246 269 289 296 289 291 290 298 229 238 261 282 237 248 228 235 281 284 314 292 289 287 280 281 300 286 293 291 291 294 291 263 211 220 232 235 236 250 233 210 229 228 238 232
320 274 256 253 232 260 266 255 242 248 249 252 266 283 273 282 298 250 210 42 24 37 49 64 65 307 290 312 324 314 309 307 293 289 296 287 278 283 309 295 286 255 244 255 248 245 237 217 211 228 224 245 251 249
283 240 234 252 247 254 250 233 238 237 258 270 276 298 297 308 211 202 99 14 22 31 23 352 348 353 343 318 320 325 313 336 318 303 297 290 289 278 266 255 268 267 268 268 266 259 229 227 231 243 247 254 248 236
253 232 213 233 237 205 230 258 285 336 311 287 278 294 305 319 278 72 65 1 358 358 359 338 334 328 314 319 305 305 304 295 317 306 291 265 268 301 284 259 255 265 245 249 249 291 278 261 248 253 231 242 237 238
247 257 240 237 262 287 290 288 299 319 282 249 226 293 355 8 45 62 355 11 343 325 328 359 37 40 27 3 350 333 296 287 287 295 293 282 272 261 273 336 330 319 284 266 255 253 255 271 268 287 249 230 239 235
243 262 227 258 256 266 279 291 241 256 277 294 331 76 48 7 359 354 337 330 331 323 342 356 3 3 2 351 347 348 344 343 348 341 313 289 248 258 247 258 278 304 301 288 285 283 267 267 268 262 255 218 180 165
243 237 263 266 272 276 274 270 272 265 179 256 74 111 216 252 297 290 313 350 1 0 338 338 343 346 347 352 6 20 4 357 20 25 37 31 2 315 280 252 289 305 275 309 301 290 252 198 140 182 203 194 180 205
251 257 229 260 274 270 296 294 224 247 198 274 308 227 279 281 97 80 25 356 320 347 353 351 360 11 18 11 359 350 350 350 338 329 345 334 357 338 333 328 325 337 304 281 226 185 210 225 208 177 168 150 129 105
254 267 278 286 287 302 286 287 296 285 273 259 282 274 206 170 126 44 36 10 347 6 18 18 16 16 10 3 1 3 8 9 4 349 157 125 36 5 17 8 339 21 178 188 200 190 184 158 147 131 104 89 84 89
225 240 252 259 284 296 280 305 307 295 294 273 244 161 149 135 94 26 4 4 21 34 24 19 20 14 20 19 12 8 1 2 19 31 44 108 98 72 63 66 84 85 162 139 138 132 113 94 81 76 86 91 97 100
244 267 265 277 315 337 330 331 304 291 267 243 92 124 115 114 118 107 16 4 34 43 24 17 10 25 26 16 23 37 43 46 47 50 54 56 64 70 69 67 73 73 79 94 92 86 82 87 90 94 95 97 101 109